Погода в Южном

Россия / Республика Калмыкия     46°17′31″N   44°15′12″E
темп.,
°C
ветер,
м/с
пор.,
м/с
влажн.,
%
обл.,
%
осадки,
мм/ч
давл.,
гПа
погр.,
м
16 мая, вс
вс1623:00+18вюв51339100 0.0 1013198
02:00+16вюв4125197 0.0 1013206
05:00+17в6155197 0.0 1012286
08:00+25вюв81430100 0.0 1012894
11:00+30юв101419100 0.0 10102076
14:00+31юв10142096 0.0 10092521
17:00+27вюв1016291 0.0 1009633
20:00+22в817356 0.0 1009457
17 мая, пн
пн1723:00+19в818388 0.0 1008410
02:00+19в9213781 0.0 1007490
05:00+20в9214197 0.0 1007578
08:00+26вюв11172997 0.0 10081334
11:00+30юв11142021 0.0 10071891
14:00+31юв1114210 0.0 10072030
17:00+27вюв813271 0.0 1007480
20:00+21в51232100 0.0 1008215
18 мая, вт
вт1823:00+19вюв51238100 0.0 1008278
02:00+17вюв334192 0.0 100730
05:00+18зсз3454100 0.0 1007113
08:00+21сз775698 0.1 1008743
11:00+24сз554867 0.3 10081590
14:00+22з8960100 0.3 10091126
17:00+22зсз81065100 0.0 1009789
20:00+18з51077100 0.0 1011274
19 мая, ср
ср1923:00+16з3685100 0.0 1011118
02:00+15зсз4686100 0.0 1011117
05:00+16з367960 0.0 1012176
08:00+20з7868100 0.0 1014704
11:00+22з78525 0.0 10141126
14:00+24з912395 0.0 10152029
17:00+21з68460 0.0 10161574
20:00+16з45680 0.0 101883
20 мая, чт
чт2023:00+14зсз337678 0.0 101833
02:00+13ссз337539 0.0 101823
05:00+15св247098 0.0 1019135
08:00+19в55511 0.0 1018595
11:00+24вюв67370 0.0 10171422
14:00+27вюв78345 0.0 10151963
17:00+26в610375 0.0 1013459
20:00+20вюв484499 0.0 1014114